SAUDISAT 1A 1 26545U 00057A 08129.88695896 -.00000046 00000-0 12867-4 0 9600 2 26545 64.5574 283.2609 0024252 345.6549 14.3865 14.80504653411342 UNISAT 1 26547U 00057C 08129.92397439 .00000013 00000-0 19925-4 0 9806 2 26547 64.5562 271.7796 0025098 0.7492 359.3655 14.82233944411595 SAUDISAT 1B 1 26549U 00057E 08129.46944070 -.00000152 00000-0 -10413-5 0 379 2 26549 64.5583 298.9546 0024955 356.6273 3.4663 14.79362730410996 MOZHAYETS 1 27560U 02054B 08129.21760500 .00000079 00000-0 28249-4 0 6602 2 27560 97.9740 345.4766 0043868 33.4715 326.9223 14.54964927287864 SAUDISAT 1C 1 27607U 02058C 08129.58497908 .00000175 00000-0 48846-4 0 5978 2 27607 64.5578 173.9104 0084504 287.0499 72.1342 14.71353309289143 UNISAT 2 1 27608U 02058D 08128.56109646 .00000027 00000-0 25144-4 0 6158 2 27608 64.5566 148.2384 0069339 278.9927 80.3347 14.74344051289592 SAUDISAT 2 1 28371U 04025F 08130.22751650 .00000039 00000-0 19955-4 0 3924 2 28371 98.0776 185.4844 0025483 215.6344 144.3155 14.52890855204715 UNISAT 3 1 28373U 04025H 08129.61696189 .00000019 00000-0 17910-4 0 1006 2 28373 98.0679 162.5133 0070106 257.7078 101.6270 14.43266810203787 SSETI EXPRESS (XO-53) 1 28894U 05043E 08129.75552599 .00000051 00000-0 20405-4 0 1544 2 28894 98.1022 24.5812 0017555 171.1944 188.9584 14.59616165134855 SAUDISAT 3 1 31118U 07012B 08130.23793084 -.00000024 00000-0 42639-5 0 2058 2 31118 98.0518 205.2300 0016700 76.2367 284.0711 14.67988454 56914